iso_date,Year,Hour,Min,DOY,POS_DOY,Lat,Lon,BP,Ts,Ta,has_bp,has_ts,has_ta,BuoyID,Buoy_Type,Buoy_Owner,Logistics,Hemisphere
2021-07-06T16:00:02Z,2021,16,0,187.6667,187.6667,61.274,-28.68,1006.5,10.21,-999.0,yes,yes,no,300234068446290,BD2GHI,AOML,UNKNOWN,North
2021-07-06T16:59:57Z,2021,17,0,187.7083,187.7083,61.278,-28.68,1006.6,10.22,-999.0,yes,yes,no,300234068446290,BD2GHI,AOML,UNKNOWN,North
2021-07-06T19:03:56Z,2021,19,4,187.7944,187.7944,61.282,-28.68,1007.8,10.22,-999.0,yes,yes,no,300234068446290,BD2GHI,AOML,UNKNOWN,North
2021-07-06T20:01:58Z,2021,20,2,187.8347,187.8347,61.284,-28.681,1007.9,10.22,-999.0,yes,yes,no,300234068446290,BD2GHI,AOML,UNKNOWN,North
2021-07-06T21:00:00Z,2021,21,0,187.875,187.875,61.285,-28.679,1008.1,10.22,-999.0,yes,yes,no,300234068446290,BD2GHI,AOML,UNKNOWN,North
2021-07-06T22:00:02Z,2021,22,0,187.9167,187.9167,61.286,-28.678,1008.4,10.21,-999.0,yes,yes,no,300234068446290,BD2GHI,AOML,UNKNOWN,North
2021-07-06T22:59:57Z,2021,23,0,187.9583,187.9583,61.288,-28.678,1008.7,10.21,-999.0,yes,yes,no,300234068446290,BD2GHI,AOML,UNKNOWN,North
2021-07-07T00:00:00Z,2021,0,0,188.0,188.0,61.291,-28.675,1008.5,10.21,-999.0,yes,yes,no,300234068446290,BD2GHI,AOML,UNKNOWN,North
2021-07-07T01:00:02Z,2021,1,0,188.0417,188.0417,61.292,-28.669,1008.2,10.2,-999.0,yes,yes,no,300234068446290,BD2GHI,AOML,UNKNOWN,North
2021-07-07T01:59:57Z,2021,2,0,188.0833,188.0833,61.294,-28.666,1008.1,10.2,-999.0,yes,yes,no,300234068446290,BD2GHI,AOML,UNKNOWN,North
2021-07-07T03:01:00Z,2021,3,1,188.1257,188.1257,61.295,-28.663,1008.2,10.2,-999.0,yes,yes,no,300234068446290,BD2GHI,AOML,UNKNOWN,North
2021-07-07T04:00:02Z,2021,4,0,188.1667,188.1667,61.298,-28.663,1008.1,10.19,-999.0,yes,yes,no,300234068446290,BD2GHI,AOML,UNKNOWN,North
2021-07-07T05:03:59Z,2021,5,4,188.2111,188.2111,61.295,-28.664,1007.8,10.19,-999.0,yes,yes,no,300234068446290,BD2GHI,AOML,UNKNOWN,North
2021-07-07T06:03:01Z,2021,6,3,188.2521,188.2521,61.299,-28.663,1008.2,10.18,-999.0,yes,yes,no,300234068446290,BD2GHI,AOML,UNKNOWN,North
2021-07-07T07:01:03Z,2021,7,1,188.2924,188.2924,61.304,-28.662,1008.0,10.18,-999.0,yes,yes,no,300234068446290,BD2GHI,AOML,UNKNOWN,North
2021-07-07T10:00:02Z,2021,10,0,188.4167,188.4167,61.31,-28.669,1008.0,10.18,-999.0,yes,yes,no,300234068446290,BD2GHI,AOML,UNKNOWN,North
2021-07-07T11:00:57Z,2021,11,1,188.459,188.459,61.315,-28.668,1007.5,10.19,-999.0,yes,yes,no,300234068446290,BD2GHI,AOML,UNKNOWN,North
2021-07-07T12:04:01Z,2021,12,4,188.5028,188.5028,61.319,-28.662,1007.7,10.21,-999.0,yes,yes,no,300234068446290,BD2GHI,AOML,UNKNOWN,North
2021-07-07T13:02:55Z,2021,13,3,188.5437,188.5437,61.324,-28.659,1007.7,10.24,-999.0,yes,yes,no,300234068446290,BD2GHI,AOML,UNKNOWN,North
2021-07-07T14:00:57Z,2021,14,1,188.584,188.584,61.329,-28.655,1008.0,10.25,-999.0,yes,yes,no,300234068446290,BD2GHI,AOML,UNKNOWN,North
2021-07-07T15:00:00Z,2021,15,0,188.625,188.625,61.333,-28.648,1007.4,10.28,-999.0,yes,yes,no,300234068446290,BD2GHI,AOML,UNKNOWN,North
2021-07-07T16:00:02Z,2021,16,0,188.6667,188.6667,61.335,-28.646,1007.4,10.33,-999.0,yes,yes,no,300234068446290,BD2GHI,AOML,UNKNOWN,North
2021-07-07T17:03:59Z,2021,17,4,188.7111,188.7111,61.336,-28.643,1007.6,10.34,-999.0,yes,yes,no,300234068446290,BD2GHI,AOML,UNKNOWN,North
2021-07-07T18:00:00Z,2021,18,0,188.75,188.75,61.337,-28.64,1007.6,10.33,-999.0,yes,yes,no,300234068446290,BD2GHI,AOML,UNKNOWN,North
2021-07-07T19:02:55Z,2021,19,3,188.7937,188.7937,61.338,-28.645,1007.6,10.36,-999.0,yes,yes,no,300234068446290,BD2GHI,AOML,UNKNOWN,North
2021-07-07T19:59:57Z,2021,20,0,188.8333,188.8333,61.34,-28.651,1007.7,10.36,-999.0,yes,yes,no,300234068446290,BD2GHI,AOML,UNKNOWN,North
2021-07-07T21:01:00Z,2021,21,1,188.8757,188.8757,61.343,-28.657,1008.1,10.34,-999.0,yes,yes,no,300234068446290,BD2GHI,AOML,UNKNOWN,North
2021-07-07T22:00:02Z,2021,22,0,188.9167,188.9167,61.346,-28.661,1008.3,10.33,-999.0,yes,yes,no,300234068446290,BD2GHI,AOML,UNKNOWN,North
2021-07-07T23:00:57Z,2021,23,1,188.959,188.959,61.354,-28.667,1008.4,10.32,-999.0,yes,yes,no,300234068446290,BD2GHI,AOML,UNKNOWN,North
2021-07-08T01:01:03Z,2021,1,1,189.0424,189.0424,61.369,-28.662,1008.6,10.32,-999.0,yes,yes,no,300234068446290,BD2GHI,AOML,UNKNOWN,North
2021-07-08T01:59:57Z,2021,2,0,189.0833,189.0833,61.375,-28.656,1008.5,10.32,-999.0,yes,yes,no,300234068446290,BD2GHI,AOML,UNKNOWN,North
2021-07-08T03:00:00Z,2021,3,0,189.125,189.125,61.381,-28.651,1008.1,10.32,-999.0,yes,yes,no,300234068446290,BD2GHI,AOML,UNKNOWN,North
2021-07-08T04:00:02Z,2021,4,0,189.1667,189.1667,61.385,-28.645,1008.0,10.32,-999.0,yes,yes,no,300234068446290,BD2GHI,AOML,UNKNOWN,North
2021-07-08T05:03:59Z,2021,5,4,189.2111,189.2111,61.39,-28.639,1008.1,10.32,-999.0,yes,yes,no,300234068446290,BD2GHI,AOML,UNKNOWN,North
2021-07-08T06:00:00Z,2021,6,0,189.25,189.25,61.392,-28.635,1008.4,10.32,-999.0,yes,yes,no,300234068446290,BD2GHI,AOML,UNKNOWN,North
2021-07-08T07:00:02Z,2021,7,0,189.2917,189.2917,61.392,-28.634,1008.4,10.32,-999.0,yes,yes,no,300234068446290,BD2GHI,AOML,UNKNOWN,North
2021-07-08T08:00:57Z,2021,8,1,189.334,189.334,61.394,-28.638,1009.0,10.33,-999.0,yes,yes,no,300234068446290,BD2GHI,AOML,UNKNOWN,North
2021-07-08T09:01:00Z,2021,9,1,189.3757,189.3757,61.396,-28.642,1009.3,10.33,-999.0,yes,yes,no,300234068446290,BD2GHI,AOML,UNKNOWN,North
2021-07-08T10:00:02Z,2021,10,0,189.4167,189.4167,61.399,-28.646,1009.6,10.34,-999.0,yes,yes,no,300234068446290,BD2GHI,AOML,UNKNOWN,North
2021-07-08T10:59:57Z,2021,11,0,189.4583,189.4583,61.405,-28.65,1009.9,10.36,-999.0,yes,yes,no,300234068446290,BD2GHI,AOML,UNKNOWN,North
2021-07-08T12:00:00Z,2021,12,0,189.5,189.5,61.412,-28.654,1010.0,10.4,-999.0,yes,yes,no,300234068446290,BD2GHI,AOML,UNKNOWN,North
2021-07-08T13:03:56Z,2021,13,4,189.5444,189.5444,61.419,-28.657,1010.2,10.46,-999.0,yes,yes,no,300234068446290,BD2GHI,AOML,UNKNOWN,North
2021-07-08T13:59:57Z,2021,14,0,189.5833,189.5833,61.427,-28.654,1009.8,10.53,-999.0,yes,yes,no,300234068446290,BD2GHI,AOML,UNKNOWN,North
2021-07-08T15:00:00Z,2021,15,0,189.625,189.625,61.433,-28.649,1010.0,10.57,-999.0,yes,yes,no,300234068446290,BD2GHI,AOML,UNKNOWN,North
2021-07-08T16:00:02Z,2021,16,0,189.6667,189.6667,61.44,-28.645,1009.7,10.57,-999.0,yes,yes,no,300234068446290,BD2GHI,AOML,UNKNOWN,North
2021-07-08T16:59:57Z,2021,17,0,189.7083,189.7083,61.442,-28.643,1009.4,10.61,-999.0,yes,yes,no,300234068446290,BD2GHI,AOML,UNKNOWN,North
2021-07-08T18:00:00Z,2021,18,0,189.75,189.75,61.448,-28.639,1009.4,10.58,-999.0,yes,yes,no,300234068446290,BD2GHI,AOML,UNKNOWN,North
2021-07-08T19:00:02Z,2021,19,0,189.7917,189.7917,61.451,-28.64,1009.4,10.58,-999.0,yes,yes,no,300234068446290,BD2GHI,AOML,UNKNOWN,North
2021-07-08T19:59:57Z,2021,20,0,189.8333,189.8333,61.454,-28.644,1009.3,10.56,-999.0,yes,yes,no,300234068446290,BD2GHI,AOML,UNKNOWN,North
2021-07-08T21:00:00Z,2021,21,0,189.875,189.875,61.458,-28.65,1009.0,10.56,-999.0,yes,yes,no,300234068446290,BD2GHI,AOML,UNKNOWN,North
2021-07-08T23:00:57Z,2021,23,1,189.959,189.959,61.47,-28.656,1008.9,10.53,-999.0,yes,yes,no,300234068446290,BD2GHI,AOML,UNKNOWN,North
2021-07-09T00:00:00Z,2021,0,0,190.0,190.0,61.476,-28.657,1008.5,10.53,-999.0,yes,yes,no,300234068446290,BD2GHI,AOML,UNKNOWN,North
2021-07-09T01:01:03Z,2021,1,1,190.0424,190.0424,61.482,-28.655,1008.3,10.53,-999.0,yes,yes,no,300234068446290,BD2GHI,AOML,UNKNOWN,North
2021-07-09T03:00:00Z,2021,3,0,190.125,190.125,61.496,-28.643,1008.4,10.52,-999.0,yes,yes,no,300234068446290,BD2GHI,AOML,UNKNOWN,North
2021-07-09T04:00:02Z,2021,4,0,190.1667,190.1667,61.501,-28.637,1008.4,10.51,-999.0,yes,yes,no,300234068446290,BD2GHI,AOML,UNKNOWN,North
2021-07-09T04:59:57Z,2021,5,0,190.2083,190.2083,61.507,-28.63,1008.2,10.5,-999.0,yes,yes,no,300234068446290,BD2GHI,AOML,UNKNOWN,North
2021-07-09T06:00:00Z,2021,6,0,190.25,190.25,61.513,-28.625,1008.0,10.49,-999.0,yes,yes,no,300234068446290,BD2GHI,AOML,UNKNOWN,North
2021-07-09T07:01:03Z,2021,7,1,190.2924,190.2924,61.514,-28.622,1008.0,10.48,-999.0,yes,yes,no,300234068446290,BD2GHI,AOML,UNKNOWN,North
2021-07-09T07:59:57Z,2021,8,0,190.3333,190.3333,61.518,-28.62,1007.8,10.48,-999.0,yes,yes,no,300234068446290,BD2GHI,AOML,UNKNOWN,North
2021-07-09T09:00:00Z,2021,9,0,190.375,190.375,61.52,-28.618,1007.3,10.49,-999.0,yes,yes,no,300234068446290,BD2GHI,AOML,UNKNOWN,North
2021-07-09T10:03:56Z,2021,10,4,190.4194,190.4194,61.524,-28.62,1007.0,10.5,-999.0,yes,yes,no,300234068446290,BD2GHI,AOML,UNKNOWN,North
2021-07-09T10:59:57Z,2021,11,0,190.4583,190.4583,61.526,-28.614,1006.5,10.52,-999.0,yes,yes,no,300234068446290,BD2GHI,AOML,UNKNOWN,North
2021-07-09T12:01:00Z,2021,12,1,190.5007,190.5007,61.531,-28.609,1006.1,10.54,-999.0,yes,yes,no,300234068446290,BD2GHI,AOML,UNKNOWN,North
2021-07-09T13:02:55Z,2021,13,3,190.5437,190.5437,61.544,-28.616,1005.8,10.56,-999.0,yes,yes,no,300234068446290,BD2GHI,AOML,UNKNOWN,North
2021-07-09T13:59:57Z,2021,14,0,190.5833,190.5833,61.551,-28.611,1005.4,10.55,-999.0,yes,yes,no,300234068446290,BD2GHI,AOML,UNKNOWN,North
2021-07-09T15:00:00Z,2021,15,0,190.625,190.625,61.56,-28.603,1004.6,10.54,-999.0,yes,yes,no,300234068446290,BD2GHI,AOML,UNKNOWN,North
2021-07-09T16:00:02Z,2021,16,0,190.6667,190.6667,61.566,-28.593,1004.1,10.57,-999.0,yes,yes,no,300234068446290,BD2GHI,AOML,UNKNOWN,North
2021-07-09T16:59:57Z,2021,17,0,190.7083,190.7083,61.573,-28.585,1003.9,10.57,-999.0,yes,yes,no,300234068446290,BD2GHI,AOML,UNKNOWN,North
2021-07-09T18:04:01Z,2021,18,4,190.7528,190.7528,61.579,-28.573,1003.8,10.55,-999.0,yes,yes,no,300234068446290,BD2GHI,AOML,UNKNOWN,North
2021-07-09T19:00:02Z,2021,19,0,190.7917,190.7917,61.584,-28.564,1003.6,10.53,-999.0,yes,yes,no,300234068446290,BD2GHI,AOML,UNKNOWN,North
2021-07-09T19:59:57Z,2021,20,0,190.8333,190.8333,61.589,-28.555,1003.5,10.53,-999.0,yes,yes,no,300234068446290,BD2GHI,AOML,UNKNOWN,North
2021-07-09T21:00:00Z,2021,21,0,190.875,190.875,61.593,-28.547,1003.7,10.53,-999.0,yes,yes,no,300234068446290,BD2GHI,AOML,UNKNOWN,North
2021-07-09T22:03:56Z,2021,22,4,190.9194,190.9194,-90.0,-180.0,1003.8,10.53,-999.0,yes,yes,no,300234068446290,BD2GHI,AOML,UNKNOWN,North
2021-07-09T23:01:58Z,2021,23,2,190.9597,190.9597,61.602,-28.528,1004.2,10.53,-999.0,yes,yes,no,300234068446290,BD2GHI,AOML,UNKNOWN,North
2021-07-10T01:00:02Z,2021,1,0,191.0417,191.0417,61.611,-28.508,1004.3,10.52,-999.0,yes,yes,no,300234068446290,BD2GHI,AOML,UNKNOWN,North
2021-07-10T01:59:57Z,2021,2,0,191.0833,191.0833,61.618,-28.498,1004.5,10.52,-999.0,yes,yes,no,300234068446290,BD2GHI,AOML,UNKNOWN,North
2021-07-10T03:01:00Z,2021,3,1,191.1257,191.1257,61.624,-28.489,1004.5,10.51,-999.0,yes,yes,no,300234068446290,BD2GHI,AOML,UNKNOWN,North
2021-07-10T04:03:56Z,2021,4,4,191.1694,191.1694,61.632,-28.476,1004.4,10.52,-999.0,yes,yes,no,300234068446290,BD2GHI,AOML,UNKNOWN,North
2021-07-10T05:02:58Z,2021,5,3,191.2104,191.2104,61.639,-28.463,1004.5,10.52,-999.0,yes,yes,no,300234068446290,BD2GHI,AOML,UNKNOWN,North
2021-07-10T06:00:00Z,2021,6,0,191.25,191.25,61.645,-28.449,1004.7,10.52,-999.0,yes,yes,no,300234068446290,BD2GHI,AOML,UNKNOWN,North
2021-07-10T07:01:03Z,2021,7,1,191.2924,191.2924,61.649,-28.438,1005.3,10.52,-999.0,yes,yes,no,300234068446290,BD2GHI,AOML,UNKNOWN,North
2021-07-10T08:03:59Z,2021,8,4,191.3361,191.3361,61.654,-28.426,1005.5,10.53,-999.0,yes,yes,no,300234068446290,BD2GHI,AOML,UNKNOWN,North
2021-07-10T09:00:00Z,2021,9,0,191.375,191.375,61.659,-28.416,1006.0,10.53,-999.0,yes,yes,no,300234068446290,BD2GHI,AOML,UNKNOWN,North
2021-07-10T10:00:02Z,2021,10,0,191.4167,191.4167,61.664,-28.401,1006.2,10.54,-999.0,yes,yes,no,300234068446290,BD2GHI,AOML,UNKNOWN,North
2021-07-10T10:59:57Z,2021,11,0,191.4583,191.4583,61.669,-28.382,1006.4,10.55,-999.0,yes,yes,no,300234068446290,BD2GHI,AOML,UNKNOWN,North
2021-07-10T12:00:00Z,2021,12,0,191.5,191.5,61.671,-28.362,1006.8,10.56,-999.0,yes,yes,no,300234068446290,BD2GHI,AOML,UNKNOWN,North
2021-07-10T13:00:02Z,2021,13,0,191.5417,191.5417,61.673,-28.345,1007.0,10.54,-999.0,yes,yes,no,300234068446290,BD2GHI,AOML,UNKNOWN,North
2021-07-10T13:59:57Z,2021,14,0,191.5833,191.5833,61.678,-28.332,1007.2,10.56,-999.0,yes,yes,no,300234068446290,BD2GHI,AOML,UNKNOWN,North
2021-07-10T15:00:00Z,2021,15,0,191.625,191.625,61.679,-28.328,1007.5,10.55,-999.0,yes,yes,no,300234068446290,BD2GHI,AOML,UNKNOWN,North
2021-07-10T16:00:02Z,2021,16,0,191.6667,191.6667,61.684,-28.322,1007.5,10.58,-999.0,yes,yes,no,300234068446290,BD2GHI,AOML,UNKNOWN,North
2021-07-10T17:00:57Z,2021,17,1,191.709,191.709,61.693,-28.318,1008.2,10.56,-999.0,yes,yes,no,300234068446290,BD2GHI,AOML,UNKNOWN,North
2021-07-10T18:01:00Z,2021,18,1,191.7507,191.7507,61.704,-28.308,1008.2,10.57,-999.0,yes,yes,no,300234068446290,BD2GHI,AOML,UNKNOWN,North
2021-07-10T19:00:02Z,2021,19,0,191.7917,191.7917,61.714,-28.29,1008.7,10.57,-999.0,yes,yes,no,300234068446290,BD2GHI,AOML,UNKNOWN,North
2021-07-10T19:59:57Z,2021,20,0,191.8333,191.8333,61.722,-28.269,1009.3,10.54,-999.0,yes,yes,no,300234068446290,BD2GHI,AOML,UNKNOWN,North
2021-07-10T21:00:00Z,2021,21,0,191.875,191.875,61.725,-28.247,1009.9,10.54,-999.0,yes,yes,no,300234068446290,BD2GHI,AOML,UNKNOWN,North
2021-07-10T22:02:55Z,2021,22,3,191.9187,191.9187,61.729,-28.23,1010.5,10.52,-999.0,yes,yes,no,300234068446290,BD2GHI,AOML,UNKNOWN,North
2021-07-10T22:59:57Z,2021,23,0,191.9583,191.9583,61.73,-28.219,1011.2,10.46,-999.0,yes,yes,no,300234068446290,BD2GHI,AOML,UNKNOWN,North
2021-07-11T00:00:00Z,2021,0,0,192.0,192.0,61.733,-28.212,1011.8,10.45,-999.0,yes,yes,no,300234068446290,BD2GHI,AOML,UNKNOWN,North
2021-07-11T01:02:55Z,2021,1,3,192.0437,192.0437,61.739,-28.202,1012.3,10.46,-999.0,yes,yes,no,300234068446290,BD2GHI,AOML,UNKNOWN,North
2021-07-11T01:59:57Z,2021,2,0,192.0833,192.0833,61.747,-28.188,1012.2,10.38,-999.0,yes,yes,no,300234068446290,BD2GHI,AOML,UNKNOWN,North
2021-07-11T03:00:00Z,2021,3,0,192.125,192.125,61.753,-28.171,1012.5,10.29,-999.0,yes,yes,no,300234068446290,BD2GHI,AOML,UNKNOWN,North
2021-07-11T04:00:02Z,2021,4,0,192.1667,192.1667,61.762,-28.151,1012.6,10.29,-999.0,yes,yes,no,300234068446290,BD2GHI,AOML,UNKNOWN,North
2021-07-11T04:59:57Z,2021,5,0,192.2083,192.2083,61.765,-28.129,1012.5,10.24,-999.0,yes,yes,no,300234068446290,BD2GHI,AOML,UNKNOWN,North
2021-07-11T06:00:00Z,2021,6,0,192.25,192.25,61.77,-28.116,1012.8,10.25,-999.0,yes,yes,no,300234068446290,BD2GHI,AOML,UNKNOWN,North
2021-07-11T07:00:02Z,2021,7,0,192.2917,192.2917,61.777,-28.103,1013.0,10.27,-999.0,yes,yes,no,300234068446290,BD2GHI,AOML,UNKNOWN,North
2021-07-11T08:01:58Z,2021,8,2,192.3347,192.3347,61.778,-28.103,1013.4,10.3,-999.0,yes,yes,no,300234068446290,BD2GHI,AOML,UNKNOWN,North
2021-07-11T09:00:00Z,2021,9,0,192.375,192.375,61.784,-28.1,1013.2,10.38,-999.0,yes,yes,no,300234068446290,BD2GHI,AOML,UNKNOWN,North
2021-07-11T10:00:02Z,2021,10,0,192.4167,192.4167,61.791,-28.096,1013.2,10.48,-999.0,yes,yes,no,300234068446290,BD2GHI,AOML,UNKNOWN,North
2021-07-11T10:59:57Z,2021,11,0,192.4583,192.4583,61.801,-28.089,1013.1,10.6,-999.0,yes,yes,no,300234068446290,BD2GHI,AOML,UNKNOWN,North
2021-07-11T12:01:00Z,2021,12,1,192.5007,192.5007,61.811,-28.078,1013.0,10.64,-999.0,yes,yes,no,300234068446290,BD2GHI,AOML,UNKNOWN,North
2021-07-11T13:00:02Z,2021,13,0,192.5417,192.5417,61.82,-28.06,1012.9,10.62,-999.0,yes,yes,no,300234068446290,BD2GHI,AOML,UNKNOWN,North
2021-07-11T13:59:57Z,2021,14,0,192.5833,192.5833,61.825,-28.038,1012.4,10.76,-999.0,yes,yes,no,300234068446290,BD2GHI,AOML,UNKNOWN,North
2021-07-11T15:00:00Z,2021,15,0,192.625,192.625,61.829,-28.019,1011.6,10.83,-999.0,yes,yes,no,300234068446290,BD2GHI,AOML,UNKNOWN,North
2021-07-11T16:00:02Z,2021,16,0,192.6667,192.6667,61.83,-28.006,1010.8,10.89,-999.0,yes,yes,no,300234068446290,BD2GHI,AOML,UNKNOWN,North
2021-07-11T16:59:57Z,2021,17,0,192.7083,192.7083,61.833,-27.995,1010.3,10.83,-999.0,yes,yes,no,300234068446290,BD2GHI,AOML,UNKNOWN,North
2021-07-11T18:00:00Z,2021,18,0,192.75,192.75,61.835,-27.994,1009.9,10.8,-999.0,yes,yes,no,300234068446290,BD2GHI,AOML,UNKNOWN,North
2021-07-11T19:01:03Z,2021,19,1,192.7924,192.7924,61.842,-27.997,1009.3,10.77,-999.0,yes,yes,no,300234068446290,BD2GHI,AOML,UNKNOWN,North
2021-07-11T20:00:57Z,2021,20,1,192.834,192.834,61.848,-28.002,1008.7,10.68,-999.0,yes,yes,no,300234068446290,BD2GHI,AOML,UNKNOWN,North
2021-07-11T21:00:00Z,2021,21,0,192.875,192.875,61.858,-28.004,1007.9,10.58,-999.0,yes,yes,no,300234068446290,BD2GHI,AOML,UNKNOWN,North
2021-07-11T22:00:02Z,2021,22,0,192.9167,192.9167,61.868,-28.006,1006.7,10.53,-999.0,yes,yes,no,300234068446290,BD2GHI,AOML,UNKNOWN,North
2021-07-11T22:59:57Z,2021,23,0,192.9583,192.9583,61.878,-28.003,1006.3,10.51,-999.0,yes,yes,no,300234068446290,BD2GHI,AOML,UNKNOWN,North
2021-07-12T00:00:00Z,2021,0,0,193.0,193.0,61.886,-27.997,1005.6,10.46,-999.0,yes,yes,no,300234068446290,BD2GHI,AOML,UNKNOWN,North
2021-07-12T01:00:02Z,2021,1,0,193.0417,193.0417,61.898,-27.983,1004.3,10.43,-999.0,yes,yes,no,300234068446290,BD2GHI,AOML,UNKNOWN,North
2021-07-12T01:59:57Z,2021,2,0,193.0833,193.0833,61.905,-27.97,1002.9,10.4,-999.0,yes,yes,no,300234068446290,BD2GHI,AOML,UNKNOWN,North
2021-07-12T03:00:00Z,2021,3,0,193.125,193.125,61.912,-27.955,1001.4,10.35,-999.0,yes,yes,no,300234068446290,BD2GHI,AOML,UNKNOWN,North
2021-07-12T04:01:03Z,2021,4,1,193.1674,193.1674,61.918,-27.941,1000.1,10.34,-999.0,yes,yes,no,300234068446290,BD2GHI,AOML,UNKNOWN,North
2021-07-12T04:59:57Z,2021,5,0,193.2083,193.2083,61.924,-27.936,998.7,10.32,-999.0,yes,yes,no,300234068446290,BD2GHI,AOML,UNKNOWN,North
2021-07-12T06:00:00Z,2021,6,0,193.25,193.25,61.932,-27.933,998.2,10.31,-999.0,yes,yes,no,300234068446290,BD2GHI,AOML,UNKNOWN,North
2021-07-12T07:00:02Z,2021,7,0,193.2917,193.2917,61.944,-27.929,998.0,10.3,-999.0,yes,yes,no,300234068446290,BD2GHI,AOML,UNKNOWN,North
2021-07-12T07:59:57Z,2021,8,0,193.3333,193.3333,61.948,-27.926,998.2,10.3,-999.0,yes,yes,no,300234068446290,BD2GHI,AOML,UNKNOWN,North
2021-07-12T09:00:00Z,2021,9,0,193.375,193.375,61.956,-27.915,999.2,10.3,-999.0,yes,yes,no,300234068446290,BD2GHI,AOML,UNKNOWN,North
2021-07-12T10:00:02Z,2021,10,0,193.4167,193.4167,61.965,-27.907,999.9,10.32,-999.0,yes,yes,no,300234068446290,BD2GHI,AOML,UNKNOWN,North
2021-07-12T11:00:57Z,2021,11,1,193.459,193.459,61.97,-27.891,1000.9,10.31,-999.0,yes,yes,no,300234068446290,BD2GHI,AOML,UNKNOWN,North
2021-07-12T12:00:00Z,2021,12,0,193.5,193.5,61.973,-27.876,1001.6,10.32,-999.0,yes,yes,no,300234068446290,BD2GHI,AOML,UNKNOWN,North
2021-07-12T13:00:02Z,2021,13,0,193.5417,193.5417,61.974,-27.865,1002.3,10.33,-999.0,yes,yes,no,300234068446290,BD2GHI,AOML,UNKNOWN,North
2021-07-12T14:00:57Z,2021,14,1,193.584,193.584,61.973,-27.858,1002.5,10.34,-999.0,yes,yes,no,300234068446290,BD2GHI,AOML,UNKNOWN,North
2021-07-12T15:00:00Z,2021,15,0,193.625,193.625,61.977,-27.845,1003.0,10.38,-999.0,yes,yes,no,300234068446290,BD2GHI,AOML,UNKNOWN,North
2021-07-12T16:00:02Z,2021,16,0,193.6667,193.6667,61.978,-27.849,1003.4,10.39,-999.0,yes,yes,no,300234068446290,BD2GHI,AOML,UNKNOWN,North
2021-07-12T17:00:57Z,2021,17,1,193.709,193.709,61.984,-27.842,1003.8,10.42,-999.0,yes,yes,no,300234068446290,BD2GHI,AOML,UNKNOWN,North
2021-07-12T18:01:00Z,2021,18,1,193.7507,193.7507,61.989,-27.838,1003.9,10.45,-999.0,yes,yes,no,300234068446290,BD2GHI,AOML,UNKNOWN,North
2021-07-12T19:03:56Z,2021,19,4,193.7944,193.7944,-90.0,-180.0,1004.2,10.42,-999.0,yes,yes,no,300234068446290,BD2GHI,AOML,UNKNOWN,North
2021-07-12T19:59:57Z,2021,20,0,193.8333,193.8333,62.005,-27.846,1004.5,10.43,-999.0,yes,yes,no,300234068446290,BD2GHI,AOML,UNKNOWN,North
2021-07-12T21:00:00Z,2021,21,0,193.875,193.875,62.013,-27.843,1004.4,10.43,-999.0,yes,yes,no,300234068446290,BD2GHI,AOML,UNKNOWN,North
2021-07-12T22:00:02Z,2021,22,0,193.9167,193.9167,62.019,-27.843,1004.8,10.42,-999.0,yes,yes,no,300234068446290,BD2GHI,AOML,UNKNOWN,North
2021-07-12T22:59:57Z,2021,23,0,193.9583,193.9583,62.028,-27.841,1004.9,10.42,-999.0,yes,yes,no,300234068446290,BD2GHI,AOML,UNKNOWN,North
2021-07-13T00:00:00Z,2021,0,0,194.0,194.0,62.033,-27.837,1004.8,10.42,-999.0,yes,yes,no,300234068446290,BD2GHI,AOML,UNKNOWN,North
2021-07-13T01:00:02Z,2021,1,0,194.0417,194.0417,62.042,-27.827,1005.2,10.41,-999.0,yes,yes,no,300234068446290,BD2GHI,AOML,UNKNOWN,North
2021-07-13T02:00:57Z,2021,2,1,194.084,194.084,62.048,-27.816,1004.9,10.39,-999.0,yes,yes,no,300234068446290,BD2GHI,AOML,UNKNOWN,North
2021-07-13T03:01:00Z,2021,3,1,194.1257,194.1257,62.054,-27.803,1005.0,10.38,-999.0,yes,yes,no,300234068446290,BD2GHI,AOML,UNKNOWN,North
2021-07-13T04:03:56Z,2021,4,4,194.1694,194.1694,62.058,-27.786,1004.7,10.36,-999.0,yes,yes,no,300234068446290,BD2GHI,AOML,UNKNOWN,North
2021-07-13T04:59:57Z,2021,5,0,194.2083,194.2083,62.058,-27.779,1004.5,10.35,-999.0,yes,yes,no,300234068446290,BD2GHI,AOML,UNKNOWN,North
2021-07-13T06:00:00Z,2021,6,0,194.25,194.25,62.059,-27.777,1004.4,10.33,-999.0,yes,yes,no,300234068446290,BD2GHI,AOML,UNKNOWN,North
2021-07-13T07:02:03Z,2021,7,2,194.2931,194.2931,62.066,-27.779,1004.5,10.32,-999.0,yes,yes,no,300234068446290,BD2GHI,AOML,UNKNOWN,North
2021-07-13T08:01:58Z,2021,8,2,194.3347,194.3347,62.066,-27.782,1004.7,10.31,-999.0,yes,yes,no,300234068446290,BD2GHI,AOML,UNKNOWN,North
2021-07-13T09:01:00Z,2021,9,1,194.3757,194.3757,62.076,-27.778,1004.8,10.3,-999.0,yes,yes,no,300234068446290,BD2GHI,AOML,UNKNOWN,North
2021-07-13T10:00:02Z,2021,10,0,194.4167,194.4167,62.084,-27.774,1004.7,10.27,-999.0,yes,yes,no,300234068446290,BD2GHI,AOML,UNKNOWN,North
2021-07-13T10:59:57Z,2021,11,0,194.4583,194.4583,62.09,-27.765,1004.8,10.26,-999.0,yes,yes,no,300234068446290,BD2GHI,AOML,UNKNOWN,North
2021-07-13T12:04:01Z,2021,12,4,194.5028,194.5028,62.094,-27.756,1005.0,10.24,-999.0,yes,yes,no,300234068446290,BD2GHI,AOML,UNKNOWN,North
2021-07-13T13:01:03Z,2021,13,1,194.5424,194.5424,62.097,-27.751,1005.3,10.24,-999.0,yes,yes,no,300234068446290,BD2GHI,AOML,UNKNOWN,North
2021-07-13T14:00:57Z,2021,14,1,194.584,194.584,62.1,-27.755,1005.2,10.24,-999.0,yes,yes,no,300234068446290,BD2GHI,AOML,UNKNOWN,North
2021-07-13T15:00:00Z,2021,15,0,194.625,194.625,62.107,-27.75,1005.0,10.23,-999.0,yes,yes,no,300234068446290,BD2GHI,AOML,UNKNOWN,North
2021-07-13T16:03:56Z,2021,16,4,194.6694,194.6694,62.11,-27.738,1004.9,10.22,-999.0,yes,yes,no,300234068446290,BD2GHI,AOML,UNKNOWN,North
2021-07-13T17:03:59Z,2021,17,4,194.7111,194.7111,62.117,-27.73,1004.8,10.21,-999.0,yes,yes,no,300234068446290,BD2GHI,AOML,UNKNOWN,North
2021-07-13T18:04:01Z,2021,18,4,194.7528,194.7528,-90.0,-180.0,1004.5,10.2,-999.0,yes,yes,no,300234068446290,BD2GHI,AOML,UNKNOWN,North
2021-07-13T19:02:55Z,2021,19,3,194.7937,194.7937,62.128,-27.716,1004.4,10.18,-999.0,yes,yes,no,300234068446290,BD2GHI,AOML,UNKNOWN,North
2021-07-13T19:59:57Z,2021,20,0,194.8333,194.8333,62.13,-27.709,1004.2,10.18,-999.0,yes,yes,no,300234068446290,BD2GHI,AOML,UNKNOWN,North
2021-07-13T21:00:00Z,2021,21,0,194.875,194.875,62.131,-27.706,1003.9,10.16,-999.0,yes,yes,no,300234068446290,BD2GHI,AOML,UNKNOWN,North
2021-07-13T22:01:03Z,2021,22,1,194.9174,194.9174,62.132,-27.712,1004.2,10.14,-999.0,yes,yes,no,300234068446290,BD2GHI,AOML,UNKNOWN,North
2021-07-13T23:02:58Z,2021,23,3,194.9604,194.9604,62.137,-27.72,1004.1,10.13,-999.0,yes,yes,no,300234068446290,BD2GHI,AOML,UNKNOWN,North
2021-07-14T00:00:00Z,2021,0,0,195.0,195.0,62.137,-27.728,1003.8,10.12,-999.0,yes,yes,no,300234068446290,BD2GHI,AOML,UNKNOWN,North
2021-07-14T01:01:03Z,2021,1,1,195.0424,195.0424,62.142,-27.739,1003.8,10.1,-999.0,yes,yes,no,300234068446290,BD2GHI,AOML,UNKNOWN,North
2021-07-14T02:00:57Z,2021,2,1,195.084,195.084,62.151,-27.743,1003.4,10.09,-999.0,yes,yes,no,300234068446290,BD2GHI,AOML,UNKNOWN,North
2021-07-14T03:04:01Z,2021,3,4,195.1278,195.1278,-90.0,-180.0,1003.0,10.08,-999.0,yes,yes,no,300234068446290,BD2GHI,AOML,UNKNOWN,North
2021-07-14T04:02:03Z,2021,4,2,195.1681,195.1681,62.17,-27.732,1002.9,10.07,-999.0,yes,yes,no,300234068446290,BD2GHI,AOML,UNKNOWN,North
2021-07-14T04:59:57Z,2021,5,0,195.2083,195.2083,62.178,-27.72,1002.7,10.06,-999.0,yes,yes,no,300234068446290,BD2GHI,AOML,UNKNOWN,North
2021-07-14T06:01:00Z,2021,6,1,195.2507,195.2507,62.184,-27.706,1003.0,10.06,-999.0,yes,yes,no,300234068446290,BD2GHI,AOML,UNKNOWN,North